RH
91 97 93 81 73 66 62 67 75 79 78 72 66 58 53 59 74 83 88 87 78 71 68 68 79 93 94 93 92 88 85 84 80 77 75 73 73 75 77 82 89 83 66 58 70 92 102 98 93 89 91 96 96 98 100 97 92 89 89 92 92 92 90 84 75 68 63 55 49 48 48 48 50 52 54 54 52 49 45 37 26 17 16 19 25
94 93 84 73 68 67 72 79 79 72 64 57 55 54 60 77 93 96 97 98 92 86 82 77 84 97 97 92 88 85 84 83 81 79 77 75 72 73 76 79 83 88 83 67 54 62 83 96 98 95 94 95 94 95 97 98 97 94 90 88 88 88 89 87 82 76 70 63 56 52 50 49 50 52 52 53 53 51 49 44 33 21 16 19 28
90 82 72 70 74 77 80 77 65 55 54 57 59 64 76 89 97 99 100 101 99 97 97 95 96 100 98 90 81 78 79 78 78 82 81 77 72 70 75 78 80 83 86 82 71 60 61 72 85 93 98 99 98 97 97 97 100 98 93 88 86 84 84 84 85 81 74 67 61 57 55 53 52 52 52 52 51 49 48 44 33 22 18 22 32
78 74 74 80 85 82 77 65 54 56 65 70 72 79 88 94 98 100 100 101 99 97 98 98 97 93 89 84 75 71 71 66 66 73 78 80 77 72 74 76 79 82 83 86 88 83 73 64 66 81 94 98 98 99 100 99 99 99 97 94 88 84 82 80 80 79 74 69 64 61 58 56 54 52 50 48 46 44 41 35 28 24 26 33 38
78 82 86 88 82 73 67 58 57 71 82 83 87 95 99 99 100 100 100 100 98 95 95 92 90 86 81 76 69 63 58 53 54 61 69 79 83 78 73 73 77 81 82 84 87 90 88 77 72 85 98 97 94 95 98 99 99 99 99 98 95 90 86 82 78 75 73 71 69 67 63 59 54 50 48 47 44 39 34 31 30 33 37 38 32
88 88 82 76 68 63 64 66 77 92 97 97 98 97 97 100 101 100 100 99 96 93 93 91 87 84 77 70 65 59 53 49 52 59 65 72 81 83 78 73 76 79 80 83 85 88 91 87 83 89 97 99 99 97 97 98 98 98 97 97 96 95 92 88 80 74 70 68 68 67 65 61 55 49 46 45 44 41 37 34 36 38 37 29 20
88 78 69 68 70 71 75 85 96 95 91 97 96 87 89 99 101 99 99 99 97 91 89 89 88 84 80 80 80 75 66 59 57 63 70 75 80 85 84 78 76 79 80 81 84 87 92 95 95 92 90 93 99 100 100 98 96 95 94 92 93 94 95 91 83 75 71 67 64 62 61 60 57 51 45 42 41 41 41 39 38 36 31 25 25
74 64 64 72 79 83 87 92 90 74 69 83 87 77 78 88 95 96 88 85 89 88 85 83 83 85 87 91 95 94 86 74 66 68 78 89 89 86 87 83 77 77 79 80 84 87 89 93 95 92 87 89 95 99 101 100 98 95 91 89 88 89 91 92 87 79 73 70 67 64 63 61 58 52 45 40 38 38 39 39 37 35 33 33 37
74 69 74 83 89 90 86 79 72 63 61 69 74 76 81 90 99 97 81 72 75 78 80 80 77 78 82 86 93 97 92 80 73 72 77 89 92 87 87 84 76 75 78 79 82 85 86 88 86 82 81 85 90 94 98 100 100 98 95 91 89 87 88 90 89 84 78 74 71 69 68 67 64 57 50 44 41 39 39 39 38 37 37 40 45
77 78 81 80 79 76 67 64 74 82 78 73 78 88 96 99 100 97 89 84 79 72 72 73 72 72 75 78 80 83 82 77 74 75 75 80 87 91 92 86 78 77 80 83 87 89 92 94 90 84 84 88 89 91 95 98 99 100 99 97 96 94 91 90 89 88 83 78 75 74 73 72 70 66 60 54 47 40 38 41 41 40 42 45 50
81 85 81 69 63 63 61 68 87 97 95 93 96 99 99 95 93 90 87 86 82 77 74 73 71 70 73 78 79 75 74 71 71 74 74 74 85 95 94 89 85 83 82 85 90 94 94 92 90 93 95 96 95 95 95 94 95 98 101 100 100 99 98 95 94 91 87 82 79 78 76 74 72 69 64 57 50 42 39 41 42 43 47 52 55
88 88 81 73 72 76 78 84 92 97 100 100 94 88 86 81 78 79 79 82 87 90 91 89 84 76 72 75 78 74 73 72 71 70 66 70 87 98 94 88 85 83 82 84 87 89 88 85 88 97 100 99 98 97 93 88 87 93 99 100 100 100 100 100 98 97 93 89 84 81 79 76 74 71 66 59 53 47 43 42 43 47 53 59 63
87 83 78 79 79 80 83 87 91 96 102 97 82 75 76 76 77 82 86 93 97 99 99 99 97 91 86 83 78 76 82 86 82 75 72 78 91 96 93 88 82 78 79 82 83 84 86 88 94 99 97 96 97 96 92 86 82 85 92 98 101 100 100 100 100 100 98 95 91 86 81 78 76 73 70 64 58 53 49 47 49 56 63 67 70
84 80 77 78 78 80 86 91 95 100 101 93 81 78 83 87 92 95 97 99 100 100 101 100 99 99 99 96 90 90 97 100 96 90 89 91 92 92 95 93 86 82 82 80 79 80 83 90 98 98 92 87 84 84 89 91 88 85 86 90 96 100 100 100 100 100 100 100 97 92 86 81 78 76 73 70 65 60 58 56 57 62 69 75 77
82 79 78 79 83 89 94 97 100 101 99 91 85 89 95 98 99 99 100 100 100 100 100 100 100 99 99 99 99 99 100 100 99 95 91 91 92 94 97 96 92 91 87 82 81 82 85 92 99 100 95 86 75 72 83 94 97 95 91 88 92 99 100 100 100 100 100 100 99 97 93 86 81 78 77 74 72 69 67 65 65 69 77 81 81
82 83 85 88 93 97 99 100 101 101 99 94 93 98 101 101 100 100 100 100 100 100 100 100 100 100 100 100 100 100 99 99 99 94 88 89 91 93 96 96 96 95 92 88 87 86 88 93 97 99 97 91 82 79 87 95 98 101 97 88 90 98 100 99 100 100 100 100 100 99 96 91 87 84 81 79 79 77 75 74 76 80 86 89 85
89 92 95 98 100 100 100 101 101 101 101 100 101 102 100 100 101 100 100 100 100 100 100 100 100 100 100 100 100 100 97 94 93 92 90 90 92 95 97 95 94 96 97 98 97 94 92 93 93 94 93 93 93 93 97 99 99 101 97 88 90 98 100 99 100 99 100 100 100 100 99 96 93 90 87 87 87 84 82 81 83 87 91 90 83
97 98 100 100 100 100 101 101 101 102 102 102 102 101 100 101 101 99 100 101 100 100 100 100 100 101 100 100 100 100 98 93 92 93 94 94 95 97 96 93 91 94 96 98 99 97 94 92 92 92 92 91 90 90 95 100 100 100 97 93 96 100 100 99 100 100 100 100 100 100 100 99 98 96 95 95 94 91 88 84 85 89 90 86 79
100 100 101 100 100 101 101 101 101 101 102 102 101 100 100 100 100 100 100 100 100 100 101 100 100 100 100 100 99 100 100 97 95 96 98 98 97 96 97 96 95 96 96 98 99 97 96 96 94 92 91 89 86 87 94 101 101 100 99 99 100 100 99 99 100 100 100 100 100 100 100 100 100 100 99 99 99 98 95 92 91 91 88 84 81
100 100 100 100 101 101 100 101 102 101 102 101 100 100 101 100 100 100 100 100 100 100 100 100 100 100 100 101 100 99 100 99 97 98 100 100 98 98 99 99 99 99 99 99 99 97 95 94 91 91 94 96 95 94 95 97 99 101 101 100 100 100 99 100 100 100 100 100 99 100 100 100 100 100 101 101 100 100 99 97 96 95 92 89 86
100 100 101 100 101 101 101 102 102 101 102 101 100 100 100 100 101 100 100 100 100 100 100 100 100 100 99 99 99 99 99 99 98 97 96 94 92 92 95 97 99 100 101 100 100 98 93 91 92 93 93 96 99 98 93 92 98 102 100 99 100 100 100 100 100 100 100 100 100 100 100 100 100 101 100 100 100 101 99 98 99 99 96 91 85
100 101 101 102 102 102 102 103 103 102 102 100 100 101 100 100 100 100 100 100 100 100 100 99 100 100 95 92 92 92 92 93 92 88 86 86 85 87 92 96 98 100 100 100 100 100 99 99 99 95 91 92 97 97 93 93 98 101 100 100 100 100 100 101 100 100 100 100 100 100 100 101 100 100 100 101 101 100 99 100 100 98 93 89 85
101 101 102 102 103 103 103 103 103 103 102 100 101 100 100 100 101 100 100 101 100 100 100 100 100 99 94 87 84 85 86 86 86 84 83 84 85 87 92 96 99 101 101 100 100 99 97 96 93 90 91 94 95 93 92 95 99 100 101 100 100 100 101 100 100 100 100 100 100 100 100 100 100 101 101 99 97 97 98 99 97 94 91 86 76
101 101 102 102 102 102 102 102 103 103 102 101 101 100 100 100 100 100 100 100 100 100 101 100 97 98 99 93 88 90 92 88 85 85 87 89 89 89 94 97 100 100 100 101 100 95 90 89 91 94 97 99 97 95 97 100 100 100 100 100 100 100 100 100 100 100 100 100 101 100 100 100 101 100 97 95 94 95 97 97 95 92 85 70 54
101 100 100 101 101 101 101 101 102 103 102 101 101 101 101 100 100 101 101 100 101 100 98 94 93 96 101 99 96 98 98 93 87 86 90 94 93 93 95 98 100 101 100 100 98 95 94 96 98 99 100 99 99 99 100 100 99 100 101 100 100 100 100 100 100 100 100 101 100 100 101 101 99 97 95 95 95 95 97 97 90 77 62 48 39
100 99 99 100 101 101 102 101 100 101 102 102 102 101 101 100 100 100 100 100 100 98 93 92 95 99 101 101 100 99 96 91 88 89 94 97 95 95 96 96 98 100 99 98 99 98 100 101 100 100 100 100 100 100 99 100 100 100 100 100 100 100 100 100 100 100 101 101 100 101 100 97 97 99 98 96 96 98 96 87 69 53 43 38 36
100 98 98 100 100 100 101 100 99 100 101 101 101 101 101 101 100 100 100 100 98 94 92 95 100 101 99 100 101 99 95 94 94 95 98 99 97 98 99 97 98 98 97 99 101 100 100 100 100 100 100 100 100 100 99 100 100 100 100 100 99 99 100 100 101 101 100 100 100 98 96 96 98 100 98 98 99 95 81 60 45 40 39 37 35
100 99 99 100 99 99 100 99 99 99 99 99 101 101 101 100 101 101 101 100 98 96 95 98 101 100 99 100 101 98 96 98 99 99 99 99 97 98 99 98 99 99 98 100 100 99 101 101 100 100 101 100 100 100 100 100 100 100 100 100 99 100 100 100 100 101 100 100 99 97 95 96 98 98 100 100 91 72 54 44 42 42 39 35 33
98 98 100 100 99 99 100 98 99 100 99 98 100 100 101 101 101 100 100 101 101 100 99 100 100 101 100 100 99 99 98 98 99 101 100 98 97 98 98 98 99 99 99 99 96 95 98 100 100 100 100 99 100 100 100 100 100 100 100 100 100 100 100 100 100 101 100 100 100 97 94 95 98 101 100 87 67 51 45 45 44 40 37 34 32
98 99 100 99 98 99 99 97 98 99 99 98 98 97 98 100 101 100 100 100 100 100 100 100 100 101 100 97 97 99 100 99 99 101 100 97 97 99 101 100 98 96 96 95 92 90 94 100 101 100 99 99 99 100 100 100 99 99 100 100 99 99 100 101 100 99 100 101 100 95 93 97 101 98 83 64 51 48 48 45 41 38 37 35 33
99 100 100 99 99 101 100 98 98 98 97 97 98 97 95 94 96 100 102 101 100 99 100 100 100 100 100 98 98 99 100 99 100 101 99 98 99 101 100 97 95 93 93 93 92 92 95 100 101 99 100 100 100 100 101 99 96 95 97 100 100 99 100 100 100 101 101 101 98 96 99 101 94 77 61 52 49 47 43 40 39 38 35 33 33
100 101 101 100 99 100 101 100 99 99 97 95 98 100 98 93 91 94 98 100 101 100 100 99 98 98 100 100 100 100 99 99 100 100 99 99 101 101 98 96 95 95 94 95 95 97 99 100 100 100 101 100 100 101 100 96 91 91 95 99 100 101 101 100 100 101 101 100 100 101 98 88 71 56 49 48 45 41 38 37 37 34 32 32 32
101 101 101 100 99 100 101 99 98 99 98 98 98 100 101 99 95 93 93 94 95 97 98 98 98 100 100 100 100 100 99 99 100 101 100 100 101 100 100 100 98 97 98 98 96 98 101 100 99 100 101 100 100 101 99 94 91 93 95 95 94 97 101 101 100 101 102 101 97 88 74 61 52 47 45 42 39 37 37 35 34 32 32 33 33
101 101 101 101 100 100 100 99 99 100 100 100 100 100 100 101 100 99 96 93 90 91 95 98 100 100 99 97 98 100 100 100 100 99 98 99 100 97 96 98 100 99 100 99 96 96 100 100 100 100 100 99 100 100 97 94 95 97 97 95 92 95 100 100 99 99 95 86 74 60 51 47 45 41 39 38 39 38 36 33 33 33 33 33 34
101 101 101 101 101 100 100 100 100 100 100 100 100 100 100 100 100 100 100 99 97 97 97 97 98 100 100 98 96 95 95 98 99 95 92 96 99 95 90 92 97 100 101 100 98 96 97 98 99 100 99 99 100 98 95 95 97 96 94 92 91 92 93 91 87 80 69 58 50 45 43 41 39 36 35 36 37 36 34 34 34 34 34 36 37
101 101 100 100 101 101 101 101 100 100 100 100 100 100 100 100 100 100 100 100 100 101 99 95 92 95 98 100 99 97 96 98 98 96 94 97 101 98 92 89 92 97 100 101 100 98 97 98 99 100 99 99 98 96 93 92 93 92 87 83 80 78 74 68 61 53 46 42 41 40 38 37 37 38 39 37 37 36 35 35 35 35 37 39 42
101 101 100 100 101 100 100 101 100 100 100 100 100 100 100 100 100 100 100 100 100 100 101 97 90 86 90 95 99 100 100 99 98 98 99 100 99 100 98 95 94 98 100 100 99 99 99 100 100 99 99 98 97 95 94 93 94 95 89 77 65 58 52 46 42 40 39 39 38 36 36 37 39 40 39 37 37 36 35 36 37 38 40 44 47
101 101 101 100 101 101 101 100 100 100 100 100 100 101 100 100 100 100 100 101 100 99 101 100 93 87 89 95 99 100 100 100 99 100 100 96 94 98 101 100 99 100 100 99 99 98 98 100 101 100 100 100 99 98 98 98 100 101 90 66 47 40 39 38 39 40 38 36 36 36 38 39 39 38 38 38 37 37 38 39 41 43 46 49 51
100 100 100 100 101 101 101 100 100 100 100 100 100 100 100 100 101 100 100 101 100 99 101 101 98 94 93 95 98 100 100 99 100 101 99 94 93 97 100 100 100 101 100 100 101 99 98 100 101 100 100 100 100 100 101 100 101 102 86 55 34 32 36 37 38 38 35 34 35 37 37 38 39 39 40 41 42 43 43 44 46 48 50 52 53
100 100 101 100 101 102 101 100 100 100 100 100 100 100 100 100 100 100 100 100 100 100 100 100 100 100 98 95 96 99 100 99 100 101 97 92 91 93 97 100 101 101 100 100 101 100 100 101 101 101 102 101 100 101 101 99 102 102 82 49 29 30 35 36 35 34 33 34 35 37 38 40 41 42 43 44 46 47 47 47 48 50 51 53 56
100 101 101 100 101 101 100 101 100 100 100 101 100 100 100 100 100 101 100 100 100 100 100 100 100 101 100 98 97 98 98 99 100 100 96 93 90 89 92 98 100 100 101 101 101 101 100 100 100 100 100 100 100 101 100 100 102 97 72 42 27 30 35 36 35 34 33 35 37 38 40 42 43 45 46 46 47 48 48 48 50 52 56 60 63
101 101 101 101 102 101 100 101 101 100 100 100 100 100 101 100 100 100 100 100 100 100 100 100 100 100 101 100 99 99 98 99 100 100 99 96 91 88 91 98 99 98 98 99 99 100 101 101 101 101 101 101 101 100 99 100 98 83 55 32 27 33 36 36 36 35 35 37 39 41 43 44 45 46 46 47 47 48 49 51 55 59 63 66 67
101 101 101 102 102 101 100 100 100 100 101 100 100 100 100 100 101 101 100 100 101 100 100 100 100 100 101 100 100 100 99 99 100 101 100 97 90 86 89 96 98 97 96 94 94 96 98 99 98 97 98 99 99 98 101 101 88 62 37 27 30 35 37 37 37 37 37 38 40 42 44 44 45 46 46 48 50 51 54 58 61 65 68 70 72
101 101 100 100 100 100 101 100 100 101 102 101 101 101 100 100 101 100 100 100 101 100 100 101 100 100 101 101 101 100 100 100 100 100 100 99 95 88 87 92 98 100 98 96 96 97 99 98 96 93 93 97 99 100 100 90 67 42 28 28 33 36 37 38 38 39 40 41 42 44 45 45 46 48 50 53 55 57 59 63 67 70 72 75 77
101 100 99 98 99 100 100 100 100 100 101 101 101 101 100 100 101 100 100 101 101 100 100 100 100 100 101 101 101 100 100 100 101 100 100 100 99 93 89 92 97 101 100 99 99 98 97 97 96 94 94 94 93 88 78 61 41 28 25 29 35 38 40 42 43 44 45 46 46 46 47 49 51 54 56 58 60 63 66 69 72 74 76 79 81
100 100 99 98 99 100 100 101 100 100 100 101 100 100 100 100 100 100 100 100 100 101 101 100 100 100 101 101 101 101 100 100 100 101 101 101 100 96 93 95 99 102 100 98 97 95 89 82 75 71 71 69 64 57 47 35 27 25 28 33 39 43 44 45 46 47 47 48 49 50 52 54 56 58 60 63 66 68 71 73 74 76 78 81 83
99 99 99 99 99 100 100 100 100 100 100 100 100 100 100 100 100 100 101 100 100 100 100 100 100 101 101 101 101 101 101 102 101 101 100 100 100 100 99 99 101 101 99 98 98 97 94 82 64 50 46 45 40 34 29 25 24 28 33 38 42 44 44 45 45 46 46 48 50 52 54 57 59 62 64 67 69 69 70 73 75 78 81 82 82
99 98 99 99 100 100 99 99 100 100 99 99 100 100 100 100 100 100 100 100 100 100 100 100 100 100 100 101 102 101 101 101 101 101 101 101 101 101 100 100 100 100 100 100 98 98 100 94 72 48 37 34 30 26 24 24 27 33 38 41 43 43 43 43 43 44 46 48 51 54 58 60 63 65 66 66 67 68 70 74 77 78 80 81 81
100 99 99 99 100 101 100 100 100 100 99 99 100 100 100 100 100 100 100 100 100 101 100 100 98 97 97 97 98 100 102 102 101 100 100 100 101 101 101 100 101 101 101 100 99 101 103 93 68 43 31 29 28 26 27 30 34 37 40 41 41 40 41 42 43 46 50 53 56 60 62 62 63 63 62 64 66 69 72 76 77 78 80 82 83
100 100 100 100 101 101 101 100 100 100 100 100 99 99 100 101 100 100 100 100 100 101 101 100 99 99 97 95 91 91 94 98 101 102 102 102 102 101 96 92 93 98 101 102 101 98 90 71 49 35 30 28 28 29 31 33 36 38 38 39 40 41 43 46 50 53 56 59 60 61 61 59 59 60 61 64 68 71 73 76 78 80 83 84 84
101 100 100 100 101 101 100 101 100 100 101 101 100 99 100 100 100 100 101 101 101 101 101 100 100 101 102 99 89 80 76 79 85 90 94 96 97 92 82 72 68 71 76 79 77 69 56 42 33 31 30 28 29 32 34 35 38 39 40 42 44 45 47 50 52 54 56 56 56 56 56 56 57 60 64 67 71 73 75 79 81 82 83 84 83
Wind_Speed
31 28 30 36 41 44 44 41 37 37 40 45 52 57 55 47 35 28 28 27 27 28 30 31 29 27 25 25 26 27 27 27 26 25 26 28 28 27 27 26 26 25 24 26 28 31 34 34 33 32 33 34 36 39 41 39 37 36 38 40 43 44 42 41 40 39 38 36 34 34 34 32 32 31 31 31 31 32 33 34 35 36 36 35 34
31 32 37 42 44 43 38 34 35 43 51 55 55 50 41 34 28 27 28 27 25 26 27 28 27 25 24 24 22 22 25 26 25 26 28 28 28 28 27 26 27 26 24 24 25 27 30 32 35 35 34 34 33 34 37 39 40 38 37 37 40 43 43 43 41 38 36 35 33 33 31 31 32 32 32 32 31 31 33 35 36 36 36 35 34
34 38 43 43 41 37 34 38 46 53 54 49 42 35 31 30 29 28 28 27 24 23 22 21 22 22 21 20 19 19 21 22 23 25 28 28 28 28 28 28 27 27 26 25 24 24 26 28 31 32 34 35 35 34 34 36 39 40 39 37 37 39 40 42 42 39 37 36 34 33 31 30 31 31 30 31 31 32 34 35 35 35 36 36 35
42 43 42 38 36 38 42 48 51 48 42 37 32 30 30 30 28 26 24 22 21 21 21 19 18 19 19 20 21 22 22 23 24 25 26 28 29 29 28 29 28 28 27 26 25 24 24 25 27 27 28 30 32 33 33 34 35 38 40 40 40 39 38 39 40 40 40 39 36 34 33 31 31 30 30 31 32 33 35 35 34 34 34 35 35
43 39 36 36 40 45 49 50 45 38 34 33 31 30 29 29 27 26 23 20 20 20 21 21 21 21 22 23 24 25 25 26 26 26 26 28 30 31 30 29 29 29 28 27 26 26 25 24 25 25 26 27 29 29 30 32 33 34 37 40 42 42 40 38 38 40 41 41 40 37 34 31 31 31 32 33 34 35 36 35 34 33 33 33 34
36 35 38 43 47 47 46 42 35 31 31 30 29 28 28 27 26 23 21 21 21 21 21 22 22 23 24 24 24 26 26 26 26 26 27 28 29 31 31 30 30 30 29 29 28 27 27 26 24 24 27 29 31 30 30 31 32 33 34 36 38 40 41 40 39 39 40 41 40 38 36 34 33 33 34 35 36 37 37 36 34 34 33 33 33
33 38 42 44 43 40 35 30 27 28 30 28 29 29 26 26 26 24 23 22 23 24 25 24 24 23 24 23 22 22 23 24 25 26 27 28 30 31 32 31 31 31 30 30 29 28 28 27 26 25 26 28 31 32 32 32 33 33 33 34 35 36 38 39 40 40 40 40 39 38 37 35 34 35 35 36 37 37 37 38 38 37 36 34 33
35 40 39 36 33 29 26 27 32 37 36 32 31 30 26 26 28 28 29 28 27 27 27 28 28 27 25 24 23 22 23 25 26 28 28 29 30 32 32 31 31 31 31 30 30 30 30 29 29 28 27 27 27 29 30 32 33 34 34 34 34 35 36 37 38 39 40 40 40 39 37 36 35 36 37 38 40 42 41 40 39 38 36 34 34
34 35 33 30 29 27 29 33 37 38 35 31 29 28 26 26 27 29 31 32 31 31 30 29 31 31 31 29 27 24 25 27 29 30 32 32 32 31 32 31 31 31 31 32 31 32 32 32 31 30 28 27 26 26 27 29 31 33 34 34 35 35 36 36 37 38 39 40 41 41 39 38 38 39 41 43 44 45 43 40 38 36 33 33 34
32 30 31 33 36 39 40 37 34 31 27 25 26 25 24 24 26 28 29 31 33 33 33 32 32 33 33 33 32 29 29 31 32 33 36 36 33 30 30 32 32 32 32 33 32 32 33 33 33 31 29 27 26 25 26 28 30 32 33 34 35 36 36 37 38 38 38 40 42 42 42 42 43 44 45 45 45 44 43 42 40 38 34 33 34
31 29 32 38 40 40 37 31 29 28 25 22 23 23 24 26 28 29 31 34 34 34 33 32 31 31 31 31 31 31 32 34 34 36 38 37 32 30 31 32 33 34 34 34 34 33 33 33 33 32 30 29 27 25 25 27 29 31 32 33 34 36 36 37 38 39 40 41 42 43 44 46 46 46 45 46 45 45 45 44 42 40 37 36 36
30 29 32 35 33 30 28 25 26 26 24 25 27 27 28 30 31 33 34 33 32 30 28 25 23 25 28 29 29 29 31 34 35 36 36 34 30 29 29 29 30 33 34 35 35 34 34 34 33 32 31 30 29 26 24 24 25 28 31 32 33 35 36 37 38 39 40 41 43 44 45 47 47 46 46 47 47 46 45 43 42 40 38 37 37
31 31 30 29 28 27 26 26 27 27 27 29 30 29 29 30 29 30 30 28 28 26 22 19 17 17 20 23 26 27 28 28 29 28 28 28 28 28 29 27 28 32 32 33 34 34 33 33 32 32 30 29 27 25 24 22 22 23 27 32 35 36 37 38 38 38 39 41 43 45 47 47 47 47 48 47 47 46 46 45 43 41 39 38 37
29 29 28 27 28 27 26 27 27 27 29 32 33 31 30 28 26 26 26 26 26 23 18 17 16 14 16 18 22 25 23 18 17 18 19 22 24 26 27 26 27 29 30 30 32 32 32 31 31 31 29 26 25 24 23 22 22 21 21 26 33 37 38 39 39 39 40 41 43 45 45 46 47 47 47 45 46 47 47 47 45 42 39 37 33
29 28 28 28 28 28 28 28 27 28 31 34 35 32 29 28 26 25 25 24 22 19 15 14 14 13 14 15 17 19 17 12 12 14 16 19 21 24 25 25 26 28 29 30 31 32 32 31 31 32 30 27 25 23 23 23 24 24 23 23 28 35 38 39 39 39 40 41 43 43 43 44 45 46 46 45 45 45 44 43 42 40 37 34 31
29 29 29 29 28 28 29 28 29 31 34 35 34 31 28 27 25 25 24 21 19 17 15 14 13 11 10 10 11 12 12 11 13 14 16 19 20 21 23 24 25 27 28 29 31 31 31 30 31 32 31 29 26 25 25 26 26 27 26 25 26 31 35 37 37 37 38 40 42 43 43 43 43 44 45 44 43 42 40 38 37 37 35 32 31
30 30 30 30 30 30 30 30 32 34 34 34 32 29 27 26 25 24 24 21 17 15 14 13 12 10 9 9 10 11 12 13 14 14 15 17 17 19 21 23 25 27 29 30 30 31 30 30 31 31 31 30 28 27 28 30 31 30 28 26 25 28 31 34 35 37 38 39 41 42 43 43 42 42 43 43 42 41 39 38 37 36 33 31 32
31 32 31 30 30 31 32 33 34 35 34 33 30 28 26 26 24 23 22 20 16 13 13 14 12 11 10 10 10 12 14 14 12 12 13 14 15 18 20 22 24 26 28 29 29 30 31 30 30 30 30 29 27 27 29 32 33 32 29 27 27 29 31 32 35 37 37 38 40 41 42 42 41 40 40 40 39 38 38 38 38 36 33 31 31
33 33 32 32 33 33 35 35 34 35 34 31 29 27 26 25 23 21 20 19 16 14 15 16 15 14 14 14 14 14 16 15 14 14 15 16 17 19 21 23 25 26 27 28 29 30 30 29 28 28 28 27 26 27 28 30 31 32 30 29 30 31 32 33 35 37 37 38 39 40 40 40 39 38 37 37 36 35 35 35 35 34 32 30 29
34 33 33 34 35 35 36 35 34 33 31 29 27 26 24 22 20 19 18 17 15 14 16 17 18 16 15 15 14 14 15 15 14 15 17 18 20 22 24 26 27 27 28 29 30 31 30 29 28 27 27 28 28 27 27 27 30 32 31 32 33 32 32 34 37 37 37 38 38 38 38 37 35 35 35 34 33 33 32 32 30 29 27 26 26
34 34 36 37 37 37 36 34 32 30 28 27 26 24 22 21 20 18 17 16 16 15 14 16 18 17 16 15 15 14 15 16 17 18 20 21 23 25 27 28 29 28 28 28 30 32 33 30 27 25 26 28 28 28 28 26 28 32 33 32 31 30 31 35 37 36 36 36 35 35 35 33 32 33 33 32 31 31 31 29 27 24 23 24 24
35 37 38 38 38 37 35 32 30 28 26 26 25 23 22 21 20 19 17 15 15 14 12 13 15 18 18 17 17 17 17 18 18 19 20 21 22 23 24 26 28 27 26 26 26 27 28 28 26 24 25 27 28 29 28 25 26 31 32 29 27 28 31 34 34 34 35 36 34 32 32 33 34 33 32 31 30 30 29 28 26 25 24 24 24
39 40 40 39 38 36 33 31 28 26 26 26 25 24 22 20 19 19 18 16 15 14 13 13 15 19 21 22 21 20 18 16 15 16 17 18 19 19 21 23 23 22 22 22 23 24 25 26 26 24 23 23 23 25 24 21 23 29 29 27 26 28 30 32 33 34 35 36 34 32 33 35 36 34 31 29 28 28 28 27 26 26 24 23 23
41 41 40 39 37 34 32 29 27 26 26 26 25 24 22 21 20 20 20 19 17 17 16 15 17 22 25 27 26 22 18 17 17 17 18 18 18 17 18 18 18 17 18 20 21 22 23 22 21 20 18 17 18 19 19 19 22 26 27 26 27 28 30 32 34 34 35 36 35 34 36 37 35 32 29 28 28 28 27 26 25 24 23 22 21
42 41 40 38 36 33 31 29 27 27 26 26 25 25 23 21 20 21 21 20 19 19 19 18 21 25 27 29 26 21 20 21 20 18 17 16 15 14 13 13 12 12 14 16 15 15 15 14 14 13 13 13 14 16 17 18 21 24 25 25 26 28 30 32 34 35 36 37 36 36 36 34 31 29 28 28 27 26 24 23 22 21 20 19 17
42 41 39 37 35 33 32 30 28 27 26 25 25 24 24 22 21 20 20 20 20 20 20 22 26 27 26 27 26 24 23 22 17 13 12 12 10 8 8 8 9 10 10 10 10 10 10 10 10 9 10 12 14 16 18 18 19 22 23 24 26 27 28 31 34 35 37 38 37 36 34 32 30 28 27 25 23 22 20 20 19 18 17 16 15
42 40 38 36 35 33 32 31 30 28 26 25 24 23 22 21 21 20 20 21 20 19 22 27 30 27 25 26 25 22 17 12 10 10 9 7 4 2 2 4 7 8 8 7 7 8 7 6 7 9 12 14 15 15 16 16 19 22 24 25 25 26 26 28 31 33 35 37 36 34 32 30 28 26 24 22 20 19 18 17 16 15 14 14 14
41 39 37 36 34 33 32 31 30 28 26 25 24 23 22 22 21 20 20 20 20 20 25 29 28 25 26 27 24 20 14 10 11 11 7 4 2 1 2 4 4 4 5 6 7 7 8 9 12 15 15 15 15 15 16 19 24 26 25 25 24 24 24 26 30 32 34 35 35 33 29 26 25 24 22 20 18 17 16 16 15 14 14 13 13
39 37 37 35 33 33 32 30 29 28 27 25 24 23 23 24 23 20 18 17 16 18 23 26 24 23 25 24 20 17 15 13 13 8 4 4 3 2 2 1 1 2 5 6 7 9 13 16 16 17 17 17 17 17 20 25 27 25 23 23 23 22 23 26 29 31 32 33 33 30 26 23 23 22 20 18 17 16 16 15 14 14 13 12 12
39 37 36 34 33 33 32 30 28 27 27 27 25 23 21 22 22 21 19 16 13 13 17 20 20 20 21 20 17 15 14 13 9 4 6 5 4 3 2 2 1 4 6 7 8 12 17 18 18 18 17 18 19 22 26 27 26 24 23 23 22 20 22 26 28 29 30 31 28 25 23 21 21 20 19 19 18 17 17 15 14 13 12 11 10
38 37 35 34 33 32 31 30 28 26 26 26 26 25 23 22 21 21 19 16 12 12 14 16 15 16 18 19 18 15 10 6 4 8 9 6 4 3 2 3 3 4 4 5 9 15 19 20 19 19 18 19 22 26 27 27 25 24 24 24 22 19 20 24 26 26 26 26 24 22 20 20 20 20 19 19 18 18 17 16 14 13 11 10 9
36 35 34 33 32 31 30 29 27 26 25 25 25 27 27 26 24 22 19 15 11 10 13 14 14 16 17 16 16 14 8 6 10 11 8 6 5 5 4 4 4 4 2 3 8 15 19 20 20 19 19 21 25 27 26 25 23 22 22 22 20 17 18 21 22 22 22 21 21 20 19 19 20 20 20 19 18 17 16 15 13 12 10 8 7
34 33 33 32 31 29 28 27 26 26 26 25 26 26 27 28 28 26 22 17 10 7 10 13 14 17 18 16 15 12 9 10 12 10 8 8 8 7 6 4 4 4 3 4 9 15 18 18 18 18 18 21 25 25 24 22 20 19 20 19 16 16 18 19 19 19 19 19 20 20 20 21 21 20 19 18 17 16 15 13 12 11 9 7 6
32 31 30 30 30 28 27 26 26 26 26 25 25 25 25 26 26 27 26 22 16 13 14 14 15 19 19 17 15 12 10 10 11 11 10 9 7 6 5 4 4 4 4 5 9 14 16 16 17 18 18 20 23 23 20 18 17 18 18 16 16 17 19 19 19 20 20 20 21 21 21 21 21 20 19 19 17 15 14 12 11 9 8 6 5
31 30 28 28 27 27 26 26 26 26 25 24 24 24 24 24 24 24 25 24 21 19 18 16 16 19 20 18 16 12 9 10 12 12 11 8 6 6 7 6 4 4 5 7 9 11 12 13 16 18 18 19 21 20 17 16 16 16 16 16 17 19 20 20 20 21 21 21 22 22 21 21 20 19 18 17 16 14 13 11 10 8 7 5 5
32 30 28 27 26 26 25 25 25 25 24 24 23 23 22 23 23 22 21 21 19 18 17 15 15 15 16 18 18 15 11 12 13 11 11 13 10 7 7 8 7 6 6 7 9 10 11 12 15 17 18 19 19 17 16 16 16 14 14 14 16 18 19 20 21 22 22 23 22 21 21 20 19 18 16 15 13 12 11 9 8 7 6 5 5
31 30 28 27 26 26 25 24 24 24 23 23 22 22 21 21 20 20 20 19 17 16 15 15 15 14 14 17 17 13 10 11 12 10 13 15 12 9 8 9 9 8 8 8 8 9 11 13 14 16 17 17 17 17 17 17 16 13 12 11 12 15 18 21 22 23 23 22 21 20 20 19 18 17 15 13 11 10 9 8 7 6 6 6 6
29 27 27 26 26 26 25 24 24 24 23 23 23 22 20 20 18 18 19 17 15 14 14 15 16 16 17 16 14 10 7 8 10 9 13 15 13 12 10 9 9 10 10 9 8 9 10 12 13 14 15 16 16 16 17 16 14 11 10 10 12 16 20 22 22 22 20 20 19 19 17 16 15 14 12 10 10 9 8 7 6 6 6 6 7
28 26 26 25 26 26 25 24 24 24 24 24 24 22 21 20 18 18 18 16 13 12 13 14 15 16 17 16 13 9 7 5 6 9 13 13 13 13 11 9 9 10 10 10 9 9 9 10 11 11 13 14 15 15 15 14 11 8 7 9 13 18 20 21 20 19 18 18 17 16 16 14 13 12 11 11 9 8 7 7 6 6 7 7 8
28 27 26 26 26 25 24 24 24 24 24 24 24 23 23 21 19 18 17 15 12 11 11 12 13 14 14 14 12 9 8 7 7 9 11 11 10 11 10 9 9 9 8 8 9 9 9 10 10 10 11 13 13 14 14 13 9 6 6 8 13 17 19 18 18 17 17 16 16 15 15 14 13 12 11 9 8 7 7 7 7 8 8 9 9
28 27 26 26 26 25 24 24 23 23 23 23 23 24 23 20 18 17 16 14 12 12 11 11 12 11 11 11 11 9 8 7 6 8 9 9 9 9 9 10 10 9 7 7 7 8 8 10 10 10 11 12 13 13 13 11 7 5 5 9 13 17 18 17 17 16 16 16 16 15 14 13 11 10 8 7 7 8 9 9 9 9 9 10 11
27 26 26 26 26 26 25 24 23 23 22 21 22 23 22 19 17 17 15 14 13 13 11 11 11 10 9 9 10 9 8 7 6 8 10 11 10 10 9 9 11 11 10 9 8 8 8 8 10 10 10 11 11 11 10 8 5 4 7 11 15 17 17 17 17 16 15 15 14 13 12 11 9 8 7 8 9 10 11 10 10 10 10 11 12
26 25 25 25 25 25 25 24 23 22 22 21 22 22 20 18 17 16 16 15 14 13 12 12 11 9 8 9 9 8 7 8 7 9 11 11 11 11 10 9 10 13 13 12 11 10 9 9 10 11 10 10 9 8 7 6 4 5 9 13 16 16 16 16 15 15 14 13 12 11 10 9 8 8 9 10 11 12 11 11 11 11 12 13 14
24 24 23 23 23 23 23 23 23 22 21 20 20 20 19 18 17 17 17 16 15 14 13 13 12 10 9 9 9 8 8 9 10 10 11 10 10 10 11 10 9 11 13 14 14 13 12 11 11 12 12 12 11 9 8 6 6 8 11 14 15 14 13 12 12 10 10 9 9 9 8 8 8 9 10 11 12 12 11 11 12 12 13 14 14
23 22 22 22 22 22 21 22 22 21 20 20 21 21 20 19 18 18 17 16 15 15 15 14 13 12 11 11 11 10 11 11 11 11 10 9 8 8 10 10 9 11 14 15 15 14 13 11 10 11 11 11 10 9 8 8 10 12 13 13 11 9 9 9 9 8 7 7 8 8 8 9 10 11 11 12 12 12 12 12 13 13 14 15 15
22 21 21 22 22 21 21 21 21 20 20 21 22 22 21 19 18 17 16 15 15 15 15 14 13 13 13 14 14 14 13 13 11 10 9 8 8 8 9 10 11 13 15 15 14 13 12 11 10 9 9 9 9 9 9 10 12 14 15 14 11 10 9 9 8 7 7 8 8 8 9 10 10 11 12 11 11 12 12 12 13 14 14 15 16
21 21 21 21 21 21 20 20 20 19 19 20 21 21 20 19 17 15 15 15 15 15 15 15 14 14 15 15 14 14 14 12 11 10 10 9 9 10 10 11 13 14 14 13 12 11 10 10 9 9 8 8 8 9 10 12 13 14 14 13 11 10 8 7 6 6 6 7 8 8 9 10 10 11 11 11 11 12 13 13 14 14 15 16 17
21 21 21 21 21 21 20 19 19 19 19 19 20 20 19 18 16 15 14 14 15 16 17 17 17 16 15 15 14 13 13 12 12 11 11 10 10 11 12 12 13 13 11 11 10 9 9 8 8 8 7 8 9 10 11 12 13 13 11 10 8 7 5 5 5 5 6 7 8 9 10 10 10 10 11 11 12 13 13 13 14 15 15 17 18
22 21 21 21 21 21 20 19 19 18 18 18 19 19 18 17 16 15 14 15 16 17 18 18 19 18 17 16 15 13 12 12 11 11 11 11 12 12 12 11 10 9 8 7 7 7 7 7 7 7 7 7 8 9 10 10 10 9 8 7 5 5 4 4 5 6 7 8 8 9 9 9 10 10 11 11 12 13 13 14 15 15 16 17 18
23 22 21 21 20 20 19 18 17 16 17 17 17 18 17 16 15 15 15 15 17 18 18 19 18 18 17 17 16 14 13 12 12 12 12 12 12 13 12 11 9 8 6 5 5 6 6 6 6 7 7 7 8 9 9 8 8 7 5 4 4 4 4 4 5 6 6 7 7 8 8 9 10 10 11 12 12 13 13 14 15 16 17 18 18
25 24 22 22 21 20 19 19 18 17 17 17 16 16 16 15 14 14 15 15 17 18 18 17 17 17 16 16 16 15 14 14 13 13 13 13 12 12 12 11 10 9 8 7 7 7 7 7 7 8 8 8 8 8 7 7 6 5 4 3 2 2 3 4 4 5 6 6 7 8 8 9 10 11 11 12 12 13 14 15 16 17 17 18 19
Wind_Direction
313 311 312 315 315 316 317 316 314 310 306 304 303 303 304 305 300 290 285 287 288 287 287 286 282 273 265 264 264 261 260 262 263 264 264 264 265 268 270 271 272 270 264 259 258 255 250 244 242 240 239 239 239 237 234 231 230 231 234 237 238 235 231 230 233 239 243 241 236 235 234 231 230 232 234 235 235 236 238 238 238 237 237 237 238
314 311 311 313 314 315 315 312 309 308 305 303 302 303 303 304 303 294 289 290 291 290 288 284 278 271 265 264 266 265 262 260 262 263 263 263 264 265 267 268 269 271 269 261 254 252 250 248 247 245 244 243 242 239 236 233 230 230 231 233 237 238 233 231 231 234 239 239 233 230 229 228 229 230 231 232 232 233 236 238 237 237 237 237 238
312 312 313 313 312 310 307 307 309 310 309 306 305 307 306 308 309 301 291 289 288 285 283 278 274 271 268 265 269 272 267 265 268 269 267 263 262 263 264 265 267 267 269 268 263 254 247 246 246 246 246 246 246 245 241 238 234 230 228 229 233 236 235 233 232 232 235 237 235 232 229 226 227 228 229 230 230 231 234 236 236 237 238 238 238
312 313 313 310 307 305 305 308 311 313 312 311 311 310 309 309 311 307 296 290 288 282 276 271 268 268 267 265 267 268 267 268 268 270 272 267 262 261 262 263 264 264 265 268 269 264 254 246 243 243 244 244 245 246 245 243 240 235 231 229 230 231 231 231 231 230 233 237 238 237 235 231 230 229 227 227 227 229 232 234 234 236 238 239 238
311 310 308 305 305 306 307 309 311 313 315 316 315 313 313 311 309 307 302 295 291 286 279 274 268 267 268 266 265 266 268 271 268 267 273 273 265 261 260 261 262 262 263 265 265 266 263 257 248 242 241 243 244 244 245 245 243 241 237 233 232 231 230 230 231 231 234 239 240 239 236 233 231 229 227 226 225 225 228 230 231 232 233 234 234
306 304 305 306 307 307 307 310 312 316 318 315 312 314 316 314 310 307 304 298 290 285 280 275 270 267 268 268 268 269 270 272 270 266 270 274 271 263 258 258 259 259 261 263 263 263 264 264 259 247 239 239 241 243 244 245 245 245 243 240 237 235 232 231 232 233 235 239 241 241 238 233 230 228 226 226 226 226 226 227 227 228 228 227 227
305 308 309 309 309 309 309 309 308 313 316 313 310 311 312 313 311 305 301 298 292 286 281 276 271 267 267 268 270 270 269 269 268 267 268 272 272 265 258 256 257 258 259 260 261 261 261 263 262 254 244 237 237 238 241 243 245 245 246 245 243 240 237 233 231 231 234 237 239 241 240 236 231 229 228 225 224 226 228 227 225 224 223 223 225
312 317 316 311 309 309 307 304 302 304 307 307 307 309 310 311 310 304 301 298 293 289 285 279 274 269 267 267 266 264 264 262 262 263 264 266 268 263 255 252 253 255 257 258 258 260 260 260 260 259 254 246 239 236 235 238 242 244 245 246 245 243 241 238 233 229 230 234 237 239 239 236 231 228 226 222 220 221 223 226 228 228 228 228 230
318 321 318 314 314 308 302 304 306 304 303 302 305 311 314 311 305 300 298 295 290 286 284 280 275 270 267 265 263 259 258 258 259 261 261 264 268 261 248 246 250 252 254 257 258 260 261 262 262 261 259 254 248 239 232 232 236 240 242 243 244 244 243 241 236 231 228 229 233 236 236 234 231 227 224 223 223 222 222 224 228 231 231 233 236
321 318 314 314 317 312 306 308 312 314 313 309 309 311 310 306 303 297 293 292 289 284 280 277 272 267 264 263 261 257 256 257 257 258 260 264 270 263 245 241 247 249 251 254 256 258 260 261 263 263 260 258 254 245 236 230 231 236 240 241 243 243 244 242 238 233 228 227 229 232 233 233 233 230 229 229 227 225 224 225 226 227 226 229 236
319 317 315 314 314 312 311 313 317 319 319 315 310 307 301 300 300 296 292 292 292 290 286 279 271 265 261 260 259 257 257 257 256 258 259 259 264 263 247 237 241 246 249 252 254 256 258 259 262 262 262 261 258 250 242 235 232 232 236 240 242 243 243 242 240 236 231 227 228 229 230 233 234 232 231 230 227 225 225 226 225 225 226 228 233
318 318 319 318 317 317 319 320 318 318 319 316 310 304 298 296 294 292 293 295 298 299 295 285 274 265 260 259 259 257 257 258 258 259 258 254 257 258 248 240 243 246 249 252 254 255 256 257 258 259 259 260 259 254 248 243 238 234 233 236 240 243 244 243 241 239 234 231 229 227 229 232 233 231 229 228 226 226 226 226 227 228 229 232 235
320 320 321 321 321 321 321 319 317 318 319 315 309 305 302 300 299 298 300 304 308 308 299 285 276 269 264 261 258 259 264 263 257 255 253 250 251 250 244 243 247 249 249 250 251 252 253 254 254 254 256 258 257 254 251 249 249 245 239 235 236 241 244 244 242 241 239 237 233 230 231 232 231 231 232 229 227 225 225 226 228 229 230 234 237
323 322 322 322 322 322 320 319 318 317 315 313 313 314 314 313 313 313 313 314 314 312 300 284 274 272 273 269 265 272 282 274 253 250 253 252 252 250 246 245 247 249 249 249 249 251 252 252 253 254 258 259 256 255 255 256 260 263 257 244 236 236 240 243 243 241 240 239 236 235 237 235 233 234 234 231 229 229 229 229 229 229 231 235 237
325 324 323 323 322 322 320 318 317 315 314 315 318 321 323 323 323 322 320 319 318 318 315 301 288 282 282 283 285 291 295 281 258 261 263 257 255 256 255 252 251 251 250 248 249 250 250 251 253 255 259 260 257 255 257 259 262 266 269 262 244 236 236 238 240 240 239 239 238 239 240 239 237 237 236 233 233 234 234 234 233 233 234 234 233
328 327 325 324 323 322 321 319 318 316 316 319 322 326 328 327 327 327 326 327 329 332 334 326 314 304 297 295 294 291 284 269 262 264 263 259 256 254 253 252 251 251 251 249 249 250 249 250 251 252 256 259 258 257 256 257 257 258 265 267 252 239 237 237 238 240 240 240 240 239 238 237 238 238 237 236 235 233 231 229 231 233 233 230 227
329 328 326 325 324 323 322 321 320 319 321 325 328 330 330 330 331 333 334 336 340 341 338 330 319 311 298 284 278 277 276 273 268 264 261 260 258 254 253 252 250 249 249 250 250 249 248 248 249 252 254 255 256 257 256 253 250 251 257 262 253 243 241 240 240 240 240 239 239 237 236 235 236 237 237 236 235 233 228 223 225 228 228 225 223
330 328 326 325 323 324 325 325 324 325 328 331 331 332 333 334 337 340 341 342 346 347 343 338 333 325 311 298 293 292 292 293 292 283 274 267 264 262 260 258 254 251 250 250 250 250 250 248 249 252 254 254 253 253 252 249 248 248 253 255 250 244 242 239 236 236 235 234 234 234 233 234 234 234 235 235 234 232 229 226 227 226 224 223 222
330 328 326 325 326 328 330 331 331 331 332 334 334 336 338 340 344 349 351 350 351 353 353 351 347 340 329 319 312 303 298 299 297 288 280 274 270 268 266 264 262 258 254 251 250 251 251 249 248 248 251 253 252 250 248 246 246 249 251 250 246 242 240 236 232 230 226 226 228 229 229 230 230 231 233 234 233 231 230 230 230 228 224 222 221
330 329 328 328 331 334 336 336 336 336 336 336 338 340 343 347 353 359 360 358 357 357 1 1 354 347 341 333 324 311 302 299 291 283 278 272 267 266 265 264 262 260 258 255 254 252 250 247 247 248 251 253 252 250 249 246 246 248 248 247 244 241 238 233 230 227 222 220 222 224 224 225 225 226 229 229 228 225 224 225 227 228 226 223 222
332 331 331 334 337 339 339 339 339 339 340 341 343 348 354 356 0 5 5 2 359 357 4 7 355 341 335 332 325 316 307 299 293 288 283 277 272 267 263 260 257 256 255 254 255 254 250 247 246 247 250 253 253 254 253 248 244 244 245 245 246 244 237 230 225 222 217 214 214 216 218 217 215 217 222 222 219 217 218 220 222 224 223 223 225
334 335 337 338 340 341 342 343 343 344 347 348 350 356 2 3 3 5 3 358 353 348 351 352 339 327 324 324 320 314 306 299 296 293 288 284 279 272 265 259 256 256 254 251 252 251 247 245 246 249 251 253 252 254 252 245 238 239 240 241 243 241 235 225 217 212 210 209 208 209 210 208 207 210 215 215 212 213 216 217 218 220 222 224 227
338 339 341 341 341 343 345 347 349 350 353 355 355 359 3 4 4 6 5 358 349 342 338 335 329 326 327 327 326 322 315 308 302 296 294 293 286 275 268 262 257 255 253 251 250 248 246 248 254 257 255 250 246 246 245 238 233 233 233 233 233 233 229 219 211 208 208 206 204 203 203 203 203 206 209 209 209 212 214 216 218 222 225 226 226
342 342 342 343 344 346 348 351 354 356 359 360 359 0 3 3 3 6 5 358 350 344 342 338 336 335 333 331 331 329 322 317 311 303 302 303 295 283 272 265 260 255 249 246 247 249 252 256 257 255 249 239 233 235 235 231 228 225 224 224 223 223 221 213 208 207 205 201 200 199 198 199 202 206 207 207 209 211 213 217 220 221 222 222 220
343 343 344 345 347 349 351 354 357 0 3 3 0 2 3 3 2 2 360 357 354 351 350 348 345 341 334 330 329 323 314 313 311 306 305 306 301 288 273 261 252 244 241 243 245 247 249 246 239 236 232 221 217 220 218 218 219 216 215 214 212 213 214 209 203 202 200 197 196 195 194 196 201 205 207 208 210 212 215 217 218 217 215 213 211
344 345 346 348 350 351 353 356 359 2 5 6 4 5 4 2 1 0 358 358 357 357 356 352 346 340 333 329 326 319 312 311 312 311 313 314 309 296 274 252 230 220 224 231 232 228 225 221 216 213 203 198 203 205 200 203 210 208 204 203 202 206 210 206 201 199 197 195 193 192 194 198 202 204 207 210 211 213 214 214 211 208 206 206 209
345 346 348 350 352 354 355 358 360 2 6 7 6 7 8 5 5 5 3 360 359 0 358 351 344 339 336 338 340 338 335 333 333 335 334 333 330 302 231 186 182 197 209 209 204 202 200 192 176 171 174 183 193 196 191 193 195 193 192 195 200 205 209 206 202 200 198 196 196 195 198 202 203 204 204 205 206 208 207 204 200 199 202 206 212
347 349 351 352 354 356 358 359 359 1 5 6 5 7 9 10 12 15 12 4 359 358 354 348 342 337 335 338 343 347 354 357 348 346 358 27 43 87 155 153 165 191 195 183 179 172 157 147 151 160 170 178 181 183 182 181 181 182 186 190 195 199 203 201 199 199 200 200 199 197 198 201 200 198 197 198 201 201 197 193 192 197 202 205 209
349 352 353 355 356 357 359 0 360 0 2 3 4 7 10 11 12 15 18 13 4 357 350 342 336 334 338 341 340 339 343 346 346 356 59 88 80 98 105 78 161 171 160 161 165 156 147 148 156 165 174 178 177 175 175 174 174 177 182 187 190 194 197 197 198 199 200 200 198 196 197 196 193 192 193 195 194 190 189 190 192 195 199 202 207
351 354 355 357 359 359 360 1 2 3 2 1 1 6 12 16 15 15 16 16 14 10 359 347 340 344 350 351 347 341 337 336 344 45 103 91 85 109 74 13 56 150 150 154 161 158 155 157 164 171 176 178 175 172 172 172 171 173 178 184 189 192 194 196 197 198 197 197 197 198 196 193 190 191 191 189 185 183 185 188 188 191 196 199 206
352 355 357 358 359 360 0 2 3 4 3 1 1 2 5 13 21 23 21 17 17 20 14 1 355 360 360 354 352 354 350 350 52 101 98 77 80 109 62 33 79 124 144 162 166 163 163 165 167 170 174 176 172 170 170 170 169 171 177 182 185 188 192 194 195 195 195 195 195 195 193 191 191 188 184 182 183 184 184 183 184 189 195 198 203
354 355 358 359 359 1 2 3 4 4 2 2 4 4 2 4 12 22 30 31 26 18 14 8 4 9 11 4 1 6 24 74 100 105 94 72 73 76 64 67 91 103 121 185 177 168 168 169 168 168 172 172 169 168 168 168 169 174 178 178 177 181 187 189 190 192 192 190 189 189 189 188 186 181 178 179 183 183 182 183 184 189 192 194 201
357 358 359 359 360 2 4 5 5 4 2 2 4 6 5 3 4 10 21 34 47 40 24 16 12 17 23 19 13 22 60 95 103 102 93 88 88 81 80 97 108 100 108 172 177 172 172 173 170 170 172 171 168 167 167 167 170 174 176 175 174 175 179 183 185 185 184 184 183 183 180 178 177 177 176 177 180 182 183 184 184 185 187 190 200
2 2 3 2 1 3 5 6 4 3 3 4 4 5 7 7 7 8 12 20 33 39 34 26 21 23 29 30 27 40 73 94 97 94 93 99 105 92 81 94 113 117 129 159 170 171 175 176 173 171 171 170 169 167 166 166 169 171 172 173 172 170 171 176 177 176 176 177 176 174 172 172 175 176 175 175 178 182 184 183 182 183 187 192 205
5 5 6 6 4 5 7 7 5 4 4 4 5 6 7 9 12 13 13 15 19 23 24 24 23 25 31 35 36 43 66 90 99 95 83 77 81 77 70 74 91 119 140 152 160 167 173 176 173 169 166 166 167 165 161 160 163 166 168 169 168 166 167 169 170 170 170 169 168 168 169 171 174 176 177 178 180 181 182 182 183 186 193 204 222
6 6 7 9 8 9 10 9 8 7 6 7 8 9 10 11 12 14 16 18 21 22 22 23 22 25 32 36 35 39 66 103 118 105 68 51 50 60 79 89 94 106 129 143 151 157 161 164 165 163 161 162 161 157 152 149 150 153 157 161 165 166 165 165 165 164 164 164 166 168 170 170 172 175 179 180 180 180 183 186 189 197 209 224 240
6 7 8 9 10 11 12 11 11 12 12 13 13 11 12 13 14 14 17 21 27 31 32 29 26 26 31 36 35 40 75 121 136 110 65 52 50 56 75 90 94 102 117 128 136 146 152 156 158 160 161 161 158 153 149 145 143 143 144 151 160 165 163 162 161 161 162 163 166 168 170 171 174 176 179 181 183 186 191 196 203 216 229 241 255
8 10 11 11 12 14 13 13 15 17 18 19 19 16 14 15 14 15 18 22 29 37 39 37 32 29 29 32 34 41 76 131 141 102 65 56 56 59 68 81 89 98 111 120 128 140 149 153 156 159 162 164 161 157 153 148 143 140 142 147 156 162 163 161 160 161 162 164 166 169 172 174 176 178 182 187 193 198 202 209 220 233 243 255 270
10 12 15 15 16 16 16 15 16 18 21 23 23 21 18 15 12 11 16 22 29 34 37 39 36 32 30 30 31 41 66 106 115 85 66 60 60 62 67 75 80 86 97 108 119 131 142 148 153 157 160 163 162 158 155 152 146 142 147 154 158 161 162 162 161 162 164 167 170 173 175 178 181 185 191 196 203 211 219 227 237 251 261 272 284
8 11 15 17 17 19 20 20 19 21 23 26 26 24 19 14 10 10 14 22 27 26 29 34 34 34 34 32 30 39 60 79 86 79 70 67 66 66 73 82 82 78 83 93 103 116 129 137 142 145 150 156 157 156 156 158 157 154 155 158 162 163 163 163 164 166 169 173 176 179 181 185 189 195 200 206 214 226 240 249 257 266 275 284 291
8 11 14 17 18 20 22 23 24 26 28 29 30 26 20 15 14 15 16 20 21 19 21 27 27 28 35 36 32 34 46 63 83 91 86 79 73 71 81 94 97 95 95 96 98 104 115 124 131 137 145 151 154 156 158 163 168 166 154 157 162 164 164 167 171 174 177 180 183 186 190 193 197 203 212 224 235 246 256 262 267 275 283 288 293
9 11 14 17 19 21 23 24 27 29 31 33 33 30 22 18 21 22 19 17 18 19 22 22 19 20 31 39 38 38 42 50 71 93 94 85 77 73 80 96 107 112 117 120 118 115 113 115 121 129 136 142 147 154 160 168 176 168 158 160 165 168 170 173 177 181 184 187 189 193 197 201 207 218 233 245 253 259 264 268 275 282 285 287 291
10 12 15 18 20 21 23 25 28 31 31 33 34 32 26 22 23 22 20 19 22 24 26 25 22 25 38 45 43 41 45 50 66 88 94 88 79 72 71 81 103 118 127 132 134 134 131 128 130 133 136 140 146 155 165 175 175 166 164 166 168 170 174 177 180 184 188 192 196 201 207 215 225 239 249 256 260 264 270 274 279 282 283 286 291
11 13 17 19 21 25 27 29 31 32 32 34 36 34 28 25 24 23 23 25 26 27 30 33 36 40 47 51 48 47 53 60 69 82 90 88 80 70 64 68 92 117 129 133 134 134 134 135 140 146 148 152 159 165 170 173 166 161 163 165 166 169 173 177 182 186 190 197 206 214 222 233 243 251 257 261 265 269 273 275 277 280 283 289 293
13 15 18 19 22 25 28 31 33 33 32 33 35 33 28 26 25 26 27 29 30 32 36 41 47 49 51 53 54 59 69 75 77 80 83 83 76 66 58 61 84 113 124 124 122 122 123 127 135 144 151 157 163 167 170 169 160 155 154 154 157 162 167 172 181 189 196 207 220 229 237 245 251 256 260 263 266 269 271 273 277 282 287 290 293
14 16 20 21 22 25 27 30 33 34 33 33 32 30 28 28 28 30 33 34 36 39 42 45 50 56 58 60 63 68 74 78 78 76 76 75 73 65 59 67 90 112 118 115 111 111 114 119 126 135 144 155 161 162 162 159 153 151 152 153 157 164 169 176 187 199 210 224 234 240 247 252 256 259 261 263 266 269 272 276 280 285 289 291 292
17 19 22 24 24 25 27 30 32 32 33 35 34 30 30 31 32 36 41 43 43 45 48 50 54 58 60 61 63 67 69 70 70 70 71 71 70 70 73 84 101 112 114 108 103 103 105 110 118 124 132 143 149 150 150 149 150 154 159 162 164 169 176 187 204 217 229 240 246 250 255 258 259 260 262 265 268 273 277 282 285 288 291 292 293
19 20 23 24 25 25 25 28 30 30 32 35 36 33 33 35 38 42 47 50 52 55 58 60 60 60 60 62 64 65 66 67 67 70 74 74 72 75 83 94 105 111 111 105 98 90 87 92 101 109 118 130 137 141 146 150 153 159 163 163 165 172 185 205 226 238 244 250 253 255 257 258 259 261 265 270 275 279 283 287 289 292 294 294 296
21 22 23 24 26 26 25 25 27 29 30 35 38 37 36 39 43 48 52 57 62 66 68 67 64 61 60 61 62 64 68 70 70 71 75 76 75 77 85 94 100 105 105 99 88 76 72 79 88 95 105 120 130 136 144 149 152 156 159 161 171 189 208 229 245 252 253 254 253 254 256 258 261 267 272 276 281 285 289 291 293 294 295 296 297
24 25 25 25 26 27 28 28 29 30 32 35 38 40 40 42 49 55 60 67 74 76 73 68 64 60 58 58 59 61 65 69 71 72 74 74 75 77 80 85 92 97 98 92 84 78 78 83 89 97 105 116 124 130 136 142 146 152 161 173 192 214 232 245 251 252 250 250 252 255 260 266 271 277 282 285 288 291 293 294 294 294 294 295 296
27 27 28 28 27 26 27 28 29 30 32 33 37 42 46 48 53 60 69 78 83 79 72 63 54 48 49 53 57 59 62 66 69 71 72 73 74 75 77 81 85 90 92 93 92 93 96 100 104 108 111 115 120 125 131 138 145 154 166 180 198 221 235 243 247 249 251 256 262 267 272 277 281 284 287 290 291 292 293 292 292 292 293 294 294